星链-4452 (STARLINK-4452 )

导读 | 豆包AI

STARLINK-4452是美国SpaceX星链星座的一颗卫星,于2022年8月31日发射升空,属于星链低轨互联网星座组网卫星。星链项目旨在构建覆盖全球的卫星互联网,该卫星承担着为全球偏远、基础设施薄弱地区提供高速网络接入服务的任务,运行于近地轨道,助力星链星座完成全球网络覆盖布局。

Basic Information
目录编号:
53658
目录名称:
STARLINK-4452
国际标识:
2022-105L
轨道中心:
EARTH
卫星名称:
星链-4452
卫星全名:
星链-4452 (STARLINK-4452 )
卫星状态:
在轨 (已飞行1292 天)
发射日期:
2022-08-31 UTC
国别 :
美国 (US)
星等 :
--
Orbit Information
数据来源 国际轨道数据 AOE轨道数据
星历时间 2026-03-15T06:44:12+0800
11小时前
查看轨道信息
2026-03-12T10:00:00+0800
3天前
查看轨道信息
半长轴 6927.632km 6927.674km
偏心率 0.0002818 0.0002545
轨道倾角 97.603° 97.604°
近地点辐角 85.915° 59.769°
升交点赤经 316.447° 313.625°
平近点角 274.240° 266.043°
近地点 547.542km 547.773km
远地点 551.448km 551.301km
周期 95.639分钟 95.640分钟
每日圈数 15.056555 15.056416
Detailed Information
固有亮度:
5
最大亮度:
2.5
卫星平台:
Starlink v1.5
覆盖范围:
全球
运营商:
太空探索技术公司
运营商所在国:
美国
制造商(研发单位):
太空探索技术公司
制造商所在国:
美国
使用方式:
暂无
Satellite Introduction
星链(Starlink)计划是由太空探索技术公司(SpaceX)提出的一个巨型低轨卫星互联网星座项目,计划在2019年至2024年间在太空搭建由约1.2万颗卫星组成的“星链”网络,其中1584颗将部署在地球上空550千米处的近地轨道,并从2020年开始工作。该卫星仍在工作。
2D Orbit Map
3D Orbit Map
Orbit Altitude Analysis Chart
Orbit Inclination Analysis Chart
Orbit Comprehensive Analysis Chart
View Comprehensive Chart